Startseite
Über Mich
AHP4
Galerie
Sehschlangen
Tourenbuch
Bookmarks
Elektronik
Bewertung
Geschichten
[Tagesmessung] [Jahreswerte] [Information]

Messwerte vom 05.01.2022

Die letzten Messwerte von 23:58:48 Uhr:
KategorieMesswert
Temperatur [°C]2
Luftdruck [mBar]990
Sonneneinstrahlung0
Wind [km/h]2 aus Südwest
Niederschlag [l/m²]0
rel.Luftfeucht.96.6%
CO2 [ppm]451

Diagramme
Messwerte vom 05.01.2022
Tagesaggregation
KategorieMinimumMaximumSchnittSumme
Temperatur [°C]152.9667
Luftdruck [mBar]980991982.9271
Sonneneinstrahlung21654.4229
Wind [km/h]28
rF [%]79.296.694.14
Niederschlag [l/m²]1.545
CO2 [ppm]401525445.2
Einordnung alsKalter Tag

Messungen an benachbarten Tagen: Zur Jahresaggregation 2022
Tabelle aller Messwerte
UhrzeitTemperatur [°C]Luftdruck [mBar]SonneWind [km/h]RichtungRegen [l/m²]rF [%]CO2 [ppm]
00:01:46 3 980 0 1 SW 0 96.6 466
00:04:46 3 980 0 2 SW 0 96.6 475
00:07:47 3 980 0 0 S 0 96.6 468
00:10:46 3 980 0 1 O 0 96.6 472
00:13:46 3 980 0 0 S 0 96.6 466
00:16:48 3 980 0 1 SW 0 96.6 469
00:19:47 3 980 0 1 SW 0 96.6 472
00:22:50 3 980 0 0 SW 0 96.6 466
00:25:49 3 980 0 0 SO 0 96.6 463
00:28:49 3 980 0 1 SO 0 96.6 458
00:31:47 3 980 0 2 SO 0 96.6 457
00:34:48 3 980 0 1 SO 0 96.6 460
00:37:46 3 981 0 1 SW 0 96.6 460
00:40:48 3 981 0 2 SO 0 96.6 460
00:43:48 3 980 0 1 SO 0 96.6 454
00:46:47 3 980 0 4 SW 0 96.6 454
00:49:47 3 980 0 2 SO 0 96.6 451
00:52:48 3 980 0 1 NW 0 96.6 454
00:55:47 3 980 0 0 SW 0 96.6 460
00:58:48 3 980 0 1 SW 0 96.6 456
01:01:45 3 981 0 1 S 0 96.6 459
01:04:46 3 981 0 2 NW 0 96.6 460
01:07:45 3 980 0 3 S 0 96.6 457
01:10:47 3 980 0 0 W 0 96.6 455
01:13:46 3 981 0 0 S 0 96.6 448
01:16:45 3 980 0 1 S 0 96.6 451
01:19:47 3 980 0 0 SW 0 96.6 451
01:22:47 3 980 0 6 SW 0 96.6 451
01:25:46 3 980 0 0 SO 0 96.6 451
01:28:46 3 980 0 1 S 0 96.6 448
01:31:47 3 980 0 1 SW 0 96.6 442
01:34:45 3 980 0 1 W 0 96.6 445
01:37:48 3 980 0 0 NO 0 96.6 443
01:40:46 3 980 0 0 O 0 96.6 439
01:43:45 3 980 0 0 S 0 96.6 433
01:46:49 3 980 0 3 SW 0 96.6 436
01:49:48 3 980 0 1 S 0 96.6 434
01:52:46 3 980 0 0 SW 0 96.6 436
01:55:49 3 980 0 1 O 0 96.6 430
01:58:47 3 980 0 3 SW 0 96.6 436
02:01:47 3 980 0 0 SO 0 96.6 435
02:04:47 3 980 0 1 O 0 96.6 425
02:07:48 3 980 0 2 O 0 96.6 428
02:10:48 3 980 0 2 0 96.6 428
02:13:47 3 980 0 1 SW 0 96.6 430
02:16:47 3 980 0 1 S 0 96.6 430
02:19:48 3 980 0 4 SW 0 96.6 427
02:22:45 3 981 0 2 N 0 96.6 413
02:25:45 3 980 0 1 S 0 96.6 416
02:28:45 3 980 0 2 S 0 96.6 415
02:31:47 3 980 0 10 SO 0 96.6 415
02:34:47 3 980 0 1 SW 0 96.6 418
02:37:48 3 980 0 1 SW 0 96.6 424
02:40:51 3 981 0 2 NW 0 96.6 419
02:43:47 3 980 0 2 W 0 96.6 415
02:46:47 3 981 0 2 SW 0 96.6 413
02:49:46 3 980 0 3 W 0 96.6 409
02:52:48 3 980 0 3 SO 0 96.6 415
02:55:46 3 980 0 5 NW 0 96.6 421
02:58:46 3 980 0 8 S 0 96.6 410
03:01:46 3 980 0 1 SO 0 96.6 413
03:04:44 3 981 0 0 O 0 96.6 415
03:07:46 3 980 0 1 SW 0 96.6 413
03:10:47 3 980 0 2 S 0 96.6 419
03:13:47 3 980 0 4 SO 0 96.6 418
03:16:47 3 980 0 3 SW 0 96.6 418
03:19:46 3 980 0 0 S 0 96.6 413
03:22:48 3 980 0 1 SW 0 96.6 420
03:25:45 3 980 0 3 S 0 96.6 413
03:28:45 3 980 0 4 W 0 96.6 415
03:31:47 3 980 0 5 SO 0 96.6 404
03:34:47 3 981 0 4 S 0 96.6 407
03:37:46 3 980 0 5 S 0 96.6 407
03:40:46 3 980 0 3 SW 0 96.6 404
03:43:48 3 980 0 9 NW 0 96.6 404
03:46:48 3 980 0 4 SW 0 96.6 405
03:49:47 3 980 0 4 SW 0 96.6 406
03:52:48 3 980 0 8 SW 0 96.6 404
03:55:46 3 980 0 7 SW 0 96.6 406
03:58:47 3 980 0 3 SW 0 96.6 404
04:01:46 3 980 0 3 W 0 96.6 403
04:04:46 3 980 0 4 W 0 96.6 404
04:07:46 3 980 0 11 S 0 96.6 406
04:10:47 3 980 0 2 SW 0 96.6 404
04:13:45 3 980 0 2 N 0 96.6 407
04:16:48 3 980 0 0 SW 0 96.6 407
04:19:45 3 980 0 2 O 0 96.6 404
04:22:43 3 980 0 1 0 96.6 404
04:25:46 3 980 0 2 NW 0 96.6 404
04:28:46 3 980 0 1 W 0 96.6 403
04:31:45 3 980 0 3 S 0 96.6 403
04:34:47 3 980 0 3 W 0 96.6 406
04:37:45 3 981 0 0 O 0 96.6 404
04:40:46 3 980 0 4 S 0 96.6 404
04:43:45 3 980 0 2 O 0 96.6 407
04:46:48 3 980 0 2 S 0 96.6 407
04:49:45 3 980 0 5 W 0 96.6 404
04:52:45 3 981 0 1 SO 0 96.6 404
04:55:45 2 981 0 1 N 0 96.6 401
04:58:46 2 980 0 3 NW 0 96.6 404
05:01:46 2 981 0 6 SW 0 96.6 407
05:04:46 2 981 0 3 O 0 96.6 404
05:07:46 2 980 0 3 S 0 96.6 404
05:10:51 2 980 0 6 W 0 96.6 407
05:13:45 2 981 0 4 W 0 96.6 404
05:16:46 2 980 0 3 W 0 96.6 404
05:19:47 2 981 0 3 NW 0 96.6 407
05:22:45 2 981 0 7 NW 0 96.6 407
05:25:46 2 981 0 2 SO 0 96.6 404
05:28:47 2 980 0 7 W 0 96.6 407
05:31:47 2 980 0 1 SO 0 96.6 407
05:34:47 3 981 0 2 SO 0 96.6 404
05:37:46 3 981 0 2 SO 0 96.5 406
05:40:48 3 980 0 6 W 0 96.4 408
05:43:46 3 981 0 3 S 0 96.2 405
05:46:46 3 980 0 3 S 0 96.2 406
05:49:44 3 981 0 7 W 0 96.1 403
05:52:47 3 981 0 1 NO 0 95.9 404
05:55:45 3 981 0 4 NO 0 95.8 407
05:58:50 3 981 0 1 NW 0 95.7 407
06:01:47 3 981 0 3 NW 0 95.7 404
06:04:45 3 981 0 5 NW 0 95.7 403
06:07:46 2 981 0 2 W 0 95.6 403
06:10:48 3 981 0 2 SO 0 95.5 406
06:13:46 2 981 0 1 O 0 95.4 407
06:16:45 2 981 0 3 NO 0 95.2 403
06:19:45 3 981 0 4 W 0 95.1 405
06:22:47 2 982 0 5 W 0 94.9 406
06:25:45 2 981 0 4 SW 0 94.9 408
06:28:49 2 981 0 9 NW 0 94.8 407
06:31:51 2 981 0 2 SW 0 94.8 404
06:34:47 2 981 0 10 W 0 94.8 407
06:37:45 2 981 0 4 W 0 94.7 406
06:40:47 2 980 0 7 W 0 94.4 407
06:43:45 2 982 0 7 W 0 93.9 404
06:46:46 2 981 0 6 NW 0 93.9 407
06:49:49 2 981 0 3 NW 0 93.8 406
06:52:46 2 981 0 6 SW 0 93.8 407
06:55:48 2 982 0 9 NW 0 93.7 406
06:58:47 2 981 0 6 SW 0 93.6 406
07:01:46 2 981 0 9 S 0 93.3 405
07:04:45 2 981 0 5 W 0 93.2 404
07:07:45 2 981 0 3 S 0 92.9 404
07:10:46 2 981 0 3 N 0 92.9 406
07:13:48 2 982 0 2 SW 0 93 407
07:16:48 2 981 0 14 NW 0 92.8 407
07:19:45 2 981 0 7 S 0 92.4 407
07:22:46 2 981 0 3 SW 0 92.1 403
07:25:45 2 981 0 1 W 0 92.1 404
07:28:46 2 981 0 12 W 0 92.2 407
07:31:44 2 981 0 7 S 0 91.9 407
07:34:49 2 982 0 5 SO 0 91.8 406
07:37:46 2 981 0 4 NW 0 91.7 404
07:40:46 2 982 0 3 W 0 91.7 406
07:43:47 2 981 0 2 NW 0 92 406
07:46:46 2 981 0 2 S 0 92.2 407
07:49:47 2 981 0 15 SO 0 92.2 427
07:52:47 2 981 0 2 SW 0 92 437
07:55:44 2 981 3 7 SW 0 91.8 436
07:58:45 2 982 5 4 S 0 91.5 439
08:01:45 2 982 7 17 W 0 91.2 442
08:04:49 2 981 10 5 SW 0 90.8 450
08:07:46 2 982 14 3 S 0 90.6 456
08:10:47 2 981 20 1 S 0 90.5 452
08:13:47 2 982 26 8 SO 0 90.6 448
08:16:49 2 981 34 17 SO 0 90.8 451
08:19:46 2 981 43 3 S 0 90.7 455
08:22:48 2 981 51 6 SW 0 90.5 456
08:25:48 2 981 61 5 SO 0 90.2 454
08:28:48 2 982 70 6 SW 0 90.1 451
08:31:48 2 982 79 5 S 0 90.1 457
08:34:47 2 982 87 1 NO 0 90.1 469
08:37:47 1 982 95 7 S 0 90.2 463
08:40:49 1 981 104 11 S 0 90.2 448
08:43:48 1 982 111 3 W 0 90.2 442
08:46:48 2 982 118 3 S 0 89.9 442
08:49:48 2 982 125 8 N 0 89.6 436
08:52:47 2 982 131 2 O 0 89.3 439
08:55:45 2 981 137 7 N 0 89.3 444
08:58:47 2 982 140 2 NW 0 89.2 452
09:01:46 2 981 145 6 N 0 89.1 459
09:04:48 2 982 150 1 SW 0 89.3 458
09:07:47 2 982 156 2 SO 0 89.3 465
09:10:49 2 982 157 9 NO 0 89.2 477
09:13:48 2 981 160 7 S 0 89.2 478
09:16:46 2 981 160 12 S 0 89.2 475
09:19:49 2 982 162 5 NO 0 89.3 472
09:22:47 2 981 164 7 O 0 89.1 478
09:25:46 2 982 166 1 N 0 89 480
09:28:48 2 981 167 1 NW 0 89.1 477
09:31:49 2 982 169 11 S 0 89.1 480
09:34:48 2 981 170 4 O 0 88.9 483
09:37:49 2 982 171 4 NW 0 89 479
09:40:49 2 982 172 7 W 0 88.9 474
09:43:47 2 982 173 11 S 0 88.9 468
09:46:47 2 981 174 8 N 0 88.8 463
09:49:48 2 982 175 4 W 0 88.3 459
09:52:48 2 982 176 1 NW 0 88.2 460
09:55:45 2 982 177 3 S 0 87.7 453
09:58:46 2 982 178 3 NW 0 87.7 456
10:01:49 2 982 179 2 NW 0 87.8 471
10:04:49 2 982 179 2 W 0 87.7 491
10:07:48 2 983 180 17 O 0 87.4 486
10:10:50 2 982 181 19 SW 0 87 500
10:13:48 2 982 182 8 S 0 86.8 509
10:16:47 2 982 183 3 NO 0 86.7 456
10:19:49 3 981 183 2 SW 0 86.5 516
10:22:49 3 982 184 20 S 0 85.9 504
10:25:47 3 982 185 2 S 0 85.5 515
10:28:48 3 982 185 4 S 0 85.8 516
10:31:48 3 982 186 3 SW 0 85.9 516
10:34:51 3 982 187 5 SO 0 85.8 507
10:37:48 3 982 188 5 SW 0 85.3 510
10:40:51 3 981 190 12 SO 0 85 510
10:43:47 3 982 194 8 W 0 84.7 507
10:46:47 3 981 199 11 SW 0 84.6 501
10:49:48 3 982 199 6 SO 0 84.5 495
10:52:48 3 982 203 7 SW 0 84 490
10:55:48 3 981 206 8 S 0 83.6 486
10:58:50 3 983 201 13 SO 0 83 486
11:01:50 4 983 205 19 SW 0 82.6 487
11:04:48 4 981 202 12 NW 0 82.5 501
11:07:49 4 982 196 9 S 0 82.7 498
11:10:48 4 982 203 4 S 0 82.2 498
11:13:48 4 982 208 2 SO 0 82.1 492
11:16:50 4 982 199 12 N 0 82.8 492
11:19:48 4 982 197 5 S 0 81.6 492
11:22:50 4 982 202 5 NW 0 81.2 501
11:25:48 4 982 209 0 SW 0 81.4 503
11:28:47 4 981 205 3 SW 0 82 504
11:31:48 4 982 209 7 SW 0 81.3 507
11:34:48 4 982 203 8 SO 0 80.7 509
11:37:48 4 982 195 5 SW 0 80.3 518
11:40:49 4 981 200 12 SW 0 79.6 518
11:43:48 4 982 203 6 SW 0 79.7 521
11:46:48 4 982 213 7 SW 0 80 522
11:49:48 4 983 216 7 W 0 80.3 525
11:52:48 4 981 216 18 SW 0 80.6 524
11:55:46 4 981 215 3 O 0 79.8 512
11:58:46 5 981 211 7 SO 0 79.4 509
12:01:47 5 982 210 3 N 0 79.7 506
12:04:48 5 982 204 4 W 0 80 518
12:07:47 5 981 188 9 S 0 79.8 516
12:10:46 4 982 175 13 S 0 79.2 509
12:13:47 4 981 177 1 SW 0 81.3 504
12:16:50 4 982 187 9 SW 0 82.2 506
12:19:48 4 982 135 9 W 0 83.1 519
12:22:50 4 983 193 6 W 0 83.5 407
12:25:46 4 983 184 7 NW 0 83.6 407
12:28:48 4 983 175 10 S 0 82.9 401
12:31:49 4 982 151 10 W 0 83.7 407
12:34:46 4 983 153 22 W 0 84.4 404
12:37:46 3 982 157 11 N 0 86.7 404
12:40:48 3 981 138 9 SO 0 88.9 404
12:43:46 3 982 150 3 SO 0 89.7 404
12:46:46 3 981 145 6 S 0 90.7 407
12:49:49 3 982 152 15 S 0 90.8 404
12:52:48 3 982 157 8 S 0 91.4 404
12:55:47 3 982 166 2 SW 0 91.9 407
12:58:48 3 983 173 12 SO 0 92.4 404
13:01:50 3 981 184 6 SW 0 92.5 407
13:04:49 3 982 186 4 SO 0 92.8 404
13:07:48 3 981 179 7 SW 0 93.6 407
13:10:49 3 982 179 13 S 0 94 404
13:13:48 3 982 171 7 W 0 94.7 404
13:16:47 3 981 185 3 O 0 95.7 404
13:19:47 3 982 188 16 SO 0 96.3 405
13:22:49 3 981 183 9 SO 0.2575 96.6 407
13:25:47 3 982 189 5 S 0 96.6 404
13:28:46 2 981 179 5 S 0 96.6 404
13:31:48 2 982 168 5 SW 0 96.6 404
13:34:47 2 982 156 7 SW 0 96.6 404
13:37:48 2 982 142 6 SO 0.2575 96.6 405
13:40:45 2 982 138 1 W 0 96.6 404
13:43:46 2 982 165 1 W 0 96.6 407
13:46:46 2 982 175 3 N 0 96.6 407
13:49:45 2 982 180 7 O 0 96.6 407
13:52:45 2 982 171 14 S 0 96.6 404
13:55:46 2 983 150 4 W 0 96.6 404
13:58:48 2 982 136 6 SW 0 96.6 404
14:01:49 2 982 163 8 W 0 96.6 407
14:04:49 2 982 190 10 NW 0 96.6 404
14:07:48 2 983 161 7 NW 0 96.6 404
14:10:48 2 983 198 11 S 0 96.6 407
14:13:48 2 982 199 13 S 0 96.6 407
14:16:46 2 983 167 9 O 0 96.6 407
14:19:48 2 982 172 8 SW 0 96.6 407
14:22:48 2 983 158 9 SW 0 96.6 404
14:25:47 2 983 171 2 SO 0 96.6 404
14:28:48 2 982 177 5 SO 0 96.6 407
14:31:47 2 983 201 5 SW 0 96.6 406
14:34:47 3 982 202 7 SW 0 96.6 401
14:37:48 3 982 203 4 SO 0 96.6 406
14:40:48 3 982 180 5 SW 0 96.6 406
14:43:47 3 983 147 13 O 0 96.6 403
14:46:47 3 982 170 4 W 0 96.6 406
14:49:47 3 983 169 8 SO 0 96.6 407
14:52:49 3 982 171 13 S 0 96.6 403
14:55:46 3 983 170 4 NO 0 96.6 410
14:58:49 3 982 160 28 SO 0 96.6 406
15:01:47 3 983 146 8 SO 0 96.6 404
15:04:48 3 983 131 6 S 0 96.6 407
15:07:47 3 982 129 3 S 0 96.6 404
15:10:48 3 982 141 1 SW 0 96.6 415
15:13:50 3 983 154 13 SW 0.2575 96.6 433
15:16:47 3 983 177 18 SO 0 96.6 436
15:19:48 3 983 173 18 SW 0 96.6 433
15:22:47 3 983 141 4 SW 0 96.6 422
15:25:49 3 983 134 3 SW 0 96.6 416
15:28:49 3 983 127 9 W 0 96.6 418
15:31:47 3 982 113 2 SW 0 96.6 415
15:34:48 3 983 114 7 W 0 96.6 422
15:37:49 3 983 167 5 N 0 96.6 422
15:40:46 3 983 153 7 0 96.6 433
15:43:48 3 983 132 7 SW 0 96.6 436
15:46:48 3 983 105 4 W 0 96.6 445
15:49:45 3 983 144 4 O 0 96.6 439
15:52:50 3 984 135 5 SW 0 96.6 433
15:55:49 3 983 120 3 S 0 96.6 428
15:58:48 3 983 108 6 SW 0 96.6 430
16:01:48 3 983 88 4 SW 0 96.6 436
16:04:49 3 983 68 8 O 0 96.6 442
16:07:49 3 983 52 11 S 0 96.6 442
16:10:48 3 983 41 12 W 0 96.6 447
16:13:46 3 984 42 4 S 0 96.6 444
16:16:47 3 984 24 4 S 0 96.6 447
16:19:46 3 984 31 9 S 0.2575 96.6 446
16:22:47 3 984 15 5 SO 0 96.6 453
16:25:50 3 984 7 8 SO 0 96.6 453
16:28:47 3 984 7 2 SW 0 96.6 451
16:31:47 3 983 9 5 NW 0 96.6 450
16:34:47 3 984 8 14 NW 0 96.6 454
16:37:47 3 984 6 10 S 0.2575 96.6 459
16:40:48 3 984 4 12 SO 0 96.6 466
16:43:48 3 984 0 10 W 0 96.6 468
16:46:46 3 984 0 6 S 0 96.6 477
16:49:45 3 984 0 6 SW 0 96.6 471
16:52:46 3 984 0 5 O 0 96.6 465
16:55:46 3 984 0 6 SO 0 96.6 460
16:58:46 3 984 0 10 SW 0 96.6 454
17:01:45 3 984 0 3 SO 0 96.6 460
17:04:47 3 984 0 7 SW 0 96.6 469
17:07:47 3 984 0 5 O 0 96.6 463
17:10:45 3 984 0 3 O 0 96.6 471
17:13:47 3 984 0 6 S 0 96.6 466
17:16:47 3 984 0 7 O 0 96.6 471
17:19:49 3 984 0 4 NO 0 96.6 468
17:22:48 3 984 0 7 SW 0 96.6 474
17:25:46 3 984 0 3 W 0 96.6 478
17:28:45 3 984 0 9 S 0 96.6 477
17:31:47 3 984 0 10 SO 0 96.6 469
17:34:45 3 984 0 7 SW 0 96.6 471
17:37:45 3 984 0 3 S 0 96.6 471
17:40:46 3 984 0 7 SO 0 96.6 482
17:43:46 3 984 0 5 SO 0 96.6 486
17:46:45 3 984 0 9 W 0 96.6 489
17:49:47 3 984 0 10 NW 0 96.6 488
17:52:45 3 984 0 15 O 0 96.6 483
17:55:48 3 984 0 3 SW 0 96.6 486
17:58:47 3 984 0 2 SO 0 96.6 486
18:01:47 3 984 0 4 SO 0 96.6 483
18:04:48 3 984 0 7 SW 0 96.6 487
18:07:47 3 985 0 3 NW 0 96.6 483
18:10:50 4 984 0 11 S 0 96.6 482
18:13:48 4 985 0 21 S 0 96.6 480
18:16:48 4 984 0 8 SW 0 96.6 489
18:19:46 4 984 0 3 W 0 96.6 489
18:22:47 4 984 0 9 SW 0 96.6 501
18:25:49 4 984 0 3 SO 0 96.6 499
18:28:48 4 985 0 9 S 0 96.6 490
18:31:48 4 985 0 3 S 0 96.6 481
18:34:47 4 984 0 8 NW 0 96.6 480
18:37:48 4 985 0 4 SW 0 96.6 486
18:40:47 4 985 0 3 SO 0 96.6 498
18:43:47 4 985 0 4 0 96.6 506
18:46:48 4 985 0 3 W 0 96.6 513
18:49:48 4 985 0 2 SO 0 96.6 513
18:52:48 4 985 0 10 W 0 96.6 507
18:55:46 4 985 0 3 N 0 96.6 507
18:58:46 4 985 0 3 NW 0 96.6 504
19:01:48 4 985 0 6 SO 0 96.6 498
19:04:47 4 986 0 3 SO 0 96.6 495
19:07:46 4 985 0 2 O 0 96.6 498
19:10:47 4 986 0 10 NO 0 96.6 513
19:13:47 4 985 0 2 NW 0 96.6 512
19:16:46 4 986 0 12 S 0 96.6 521
19:19:46 4 986 0 13 W 0 96.6 510
19:22:46 4 986 0 7 W 0 96.6 505
19:25:47 4 986 0 22 NW 0 96.6 501
19:28:45 4 986 0 13 S 0 96.6 501
19:31:49 4 986 0 9 S 0 96.6 498
19:34:47 4 986 0 7 SW 0 96.6 506
19:37:49 4 987 0 11 SW 0 96.6 507
19:40:46 4 986 0 4 SW 0 96.6 498
19:43:48 5 987 0 11 S 0 96.6 498
19:46:46 5 987 0 13 W 0 96.6 501
19:49:49 5 987 0 10 SW 0 96.6 510
19:52:45 5 986 0 10 W 0 96.6 513
19:55:47 4 987 0 23 NW 0 96.6 501
19:58:46 4 987 0 13 S 0 96.6 489
20:01:46 4 987 0 8 SW 0 96.6 483
20:04:46 4 987 0 6 W 0 96.6 474
20:07:45 4 987 0 13 W 0 96.6 463
20:10:46 4 987 0 9 W 0 96.6 457
20:13:46 4 987 0 13 W 0 96.6 463
20:16:47 4 987 0 14 SW 0 96.6 460
20:19:47 4 987 0 24 SW 0 96.6 457
20:22:51 4 987 0 14 NO 0 96.6 465
20:25:45 4 987 0 7 S 0 96.6 474
20:28:48 4 987 0 7 SW 0 96.6 472
20:31:47 4 987 0 10 SW 0 96.6 471
20:34:48 4 987 0 11 NW 0 96.6 471
20:37:47 4 987 0 8 W 0 96.6 462
20:40:45 4 987 0 12 W 0 96.6 466
20:43:46 4 987 0 9 W 0 96.6 472
20:46:47 4 987 0 5 W 0 96.6 474
20:49:49 4 987 0 6 SW 0.2575 96.6 468
20:52:48 4 987 0 12 W 0 96.6 465
20:55:48 4 987 0 4 NW 0 96.6 459
20:58:50 4 987 0 2 NW 0 96.6 457
21:01:47 4 987 0 2 NW 0 96.6 454
21:04:49 4 988 0 3 SW 0 96.6 456
21:07:45 4 987 0 3 N 0 96.6 451
21:10:48 4 987 0 1 W 0 96.6 443
21:13:45 4 987 0 5 NW 0 96.6 448
21:16:48 4 987 0 16 NW 0 96.6 445
21:19:44 4 987 0 5 N 0 96.6 442
21:22:48 4 988 0 13 W 0 96.6 436
21:25:47 4 987 0 6 NW 0 96.6 434
21:28:47 4 987 0 12 W 0 96.6 436
21:31:47 4 988 0 7 O 0 96.6 436
21:34:47 4 987 0 15 N 0 96.6 430
21:37:46 4 987 0 10 O 0 96.6 422
21:40:47 4 987 0 11 S 0 96.6 409
21:43:47 4 988 0 11 SW 0 96.6 410
21:46:48 4 987 0 6 SW 0 96.6 410
21:49:46 4 988 0 7 W 0 96.6 413
21:52:44 3 988 0 7 S 0 96.6 418
21:55:47 3 987 0 13 NW 0 96.6 413
21:58:46 3 987 0 14 S 0 96.6 419
22:01:47 3 987 0 10 W 0 96.6 416
22:04:47 3 988 0 15 S 0 96.6 422
22:07:47 3 988 0 11 NW 0 96.6 419
22:10:48 3 988 0 10 W 0 96.6 413
22:13:47 3 988 0 9 NW 0 96.6 407
22:16:48 3 988 0 8 SO 0 96.6 406
22:19:46 3 988 0 8 O 0 96.6 401
22:22:46 3 988 0 7 O 0 96.6 407
22:25:47 3 988 0 16 SW 0 96.6 404
22:28:46 3 988 0 11 W 0 96.6 407
22:31:47 3 988 0 11 W 0 96.6 404
22:34:45 3 988 0 12 W 0 96.6 406
22:37:49 3 988 0 10 NO 0 96.6 404
22:40:49 3 989 0 8 SW 0 96.6 407
22:43:47 3 988 0 14 W 0 96.6 407
22:46:48 3 989 0 7 NO 0 96.6 489
22:49:49 3 989 0 4 S 0 96.6 478
22:52:48 3 989 0 9 SW 0 96.6 483
22:55:45 3 989 0 6 O 0 96.6 483
22:58:48 3 989 0 6 S 0 96.6 472
23:01:48 3 988 0 12 NW 0 96.6 466
23:04:48 3 989 0 11 O 0 96.6 463
23:07:48 3 988 0 5 SW 0 96.6 465
23:10:46 3 989 0 7 W 0 96.6 471
23:13:49 3 989 0 14 W 0 96.6 471
23:16:47 3 989 0 15 W 0 96.6 471
23:19:48 3 989 0 11 W 0 96.6 463
23:22:49 3 989 0 10 NW 0 96.6 463
23:25:47 3 989 0 6 NW 0 96.6 466
23:28:47 3 989 0 5 SW 0 96.6 478
23:31:49 2 990 0 5 NW 0 96.6 483
23:34:47 2 989 0 11 SO 0 96.6 488
23:37:45 2 990 0 9 W 0 96.6 472
23:40:50 2 990 0 9 SW 0 96.6 469
23:43:47 2 990 0 9 SW 0 96.6 460
23:46:47 2 990 0 8 W 0 96.6 457
23:49:48 2 990 0 7 S 0 96.6 451
23:52:45 2 991 0 17 W 0 96.6 448
23:55:47 2 991 0 12 NW 0 96.6 454
23:58:48 2 990 0 2 SW 0 96.6 451

Letzte Änderung : 04-Jan-2022
Copyright Jens Köhler, Wolfsburg, Obere Dorfstraße 10d